STARLINK-35463

Satellite information

Favourite Embed

Satellite Type and Status

PAYLOADIN ORBIT

Key statistics

Satellite STARLINK-35463 at a glance.

Uptime

29

Days in orbit

Revolutions

≈ 15.4

Per day

Orbit

LEO

Low Earth Orbit

Inclination

43.0

Latest

Satellite identification and parameters

Extended collection of information and parameters for STARLINK-35463.

Object identification

Identified? True

Debris? False

Object name: STARLINK-35463

International designator: 2025-262H

Object number (NORAD): 66463

Object ID (CCSDS): 66463

Country: UNITED STATES OF AMERICA (US)

Current information (Y/N): Y

Orbital parameters

Period: 93.47 minutes

Inclination: 43.0008 deg

SMA: 6822.486 km

Apoapsis: 445.458 km

Periapsis: 443.244 km

RAAN: 66.5103 deg

Eccentricy: 0.00016228

Argument of periapsis: 260.189 deg

Mean anomaly: 355.3001 deg

Mean motion: 15.40596153 rev/day

Mean motion (dot): 0.000691 rev/day2

B* drag term: 0.0016521703 1/REarth

Two-line elements (TLE)

Creation date: Dec. 14, 2025, 3:07 a.m.

Reference frame: TEME

Reference center: EARTH

Epoch: Dec. 13, 2025, 2 p.m. UTC

TLE line 0: 0 STARLINK-35463

TLE line 1: 1 66463U 25262H 25347.58336806 .00069100 00000-0 16522-2 0 9996

TLE line 2: 2 66463 43.0008 66.5103 0001623 260.1890 355.3001 15.40596153 5776

Live tracking on map

Real-time ground track for satellite STARLINK-35463.

In-orbit conjunctions

There are no conjunctions computed for STARLINK-35463, at the moment. Check back to stay up to date, as we update our databases every day.

Go to all conjunctions

Associated space launch

A batch of 29 satellites for the Starlink mega-constellation - SpaceX's project for space-based Internet communication system.

STARLINK-35463 was lifted into orbit during the mission ‘Falcon 9 Block 5 | Starlink Group 6-85’, on board a Falcon 9 space rocket.

The launch took place on Nov. 15, 2025, 6:44 a.m. from Space Launch Complex 40.

For more information about the launch, click the button.

Launch to space Falcon 9 Block 5 | Starlink Group 6-85
Falcon 9 Block 5 | Starlink Group 6-85

Agency: SpaceX

Status: Launch Successful

Launch date: Nov. 15, 2025, 6:44 a.m. UTC

Rocket: Falcon 9

Launch pad: Space Launch Complex 40

Location: Cape Canaveral SFS, FL, USA

...

Latest news about this satellite

News about space launch
Record doubleheader: SpaceX launches 2 Falcon 9 rockets from Florida

Washington DC (UPI) Nov 15, 2025 SpaceX launched two rockets with a total of 58 Starlink Internet satellites about 3 1/2 hours apart overnight Saturday in the private company's quickest turnaround from Florida's Space Coast. In all, there have bee...

News about space launch
Live coverage: SpaceX to launch predawn Starlink mission from Cape Canaveral

The mission is one of two Starlink flights scheduled to fly from Florida within a four-hour window of opportunity. Liftoff of the Starlink 6-85 mission from pad 40 at Cape Canaveral Space Force Station is scheduled for 1:21 a.m. EST (0621 UTC).

News about space launch
Launch Roundup: New Glenn, Viasat, & Sentinel-6B highlight busy week of launches

This week’s launch schedule features two high-profile launches that were pushed back after scrubs from… The post Launch Roundup: New Glenn, Viasat, & Sentinel-6B highlight busy week of launches appeared first on NASASpaceFlight.com.


Newsletter sign-up

Weekly statistics, charts and insights to help you stay on top of the space industry.